Year,Month,Day,Hour,Minute,Value (Times are PST for windspeed in km/hr)
2015,09,13,00,00,3.80
2015,09,13,00,01,0.90
2015,09,13,00,02,1.70
2015,09,13,00,03,1.60
2015,09,13,00,04,3.70
2015,09,13,00,05,1.20
2015,09,13,00,06,2.50
2015,09,13,00,07,3.60
2015,09,13,00,08,4.80
2015,09,13,00,09,2.40
2015,09,13,00,10,0.20
2015,09,13,00,11,0.80
2015,09,13,00,12,2.00
2015,09,13,00,13,1.10
2015,09,13,00,14,2.10
2015,09,13,00,15,3.20
2015,09,13,00,16,3.40
2015,09,13,00,17,3.70
2015,09,13,00,18,3.80
2015,09,13,00,19,3.50
2015,09,13,00,20,2.80
2015,09,13,00,21,1.70
2015,09,13,00,22,4.40
2015,09,13,00,23,4.20
2015,09,13,00,24,2.90
2015,09,13,00,25,1.80
2015,09,13,00,26,1.10
2015,09,13,00,27,1.70
2015,09,13,00,28,1.40
2015,09,13,00,29,2.70
2015,09,13,00,30,2.30
2015,09,13,00,31,1.90
2015,09,13,00,32,2.90
2015,09,13,00,33,2.80
2015,09,13,00,34,2.70
2015,09,13,00,35,3.00
2015,09,13,00,36,2.30
2015,09,13,00,37,2.60
2015,09,13,00,38,3.00
2015,09,13,00,39,2.90
2015,09,13,00,40,2.40
2015,09,13,00,41,2.00
2015,09,13,00,42,1.30
2015,09,13,00,43,1.10
2015,09,13,00,44,1.90
2015,09,13,00,45,0.30
2015,09,13,00,46,0.80
2015,09,13,00,47,0.60
2015,09,13,00,48,0.80
2015,09,13,00,49,3.20
2015,09,13,00,50,3.00
2015,09,13,00,51,1.80
2015,09,13,00,52,1.40
2015,09,13,00,53,3.00
2015,09,13,00,54,5.80
2015,09,13,00,55,5.80
2015,09,13,00,56,2.00
2015,09,13,00,57,2.80
2015,09,13,00,58,4.90
2015,09,13,00,59,2.00
2015,09,13,01,00,0.90
2015,09,13,01,01,0.70
2015,09,13,01,02,0.30
2015,09,13,01,03,0.60
2015,09,13,01,04,2.60
2015,09,13,01,05,0.40
2015,09,13,01,06,1.60
2015,09,13,01,07,1.20
2015,09,13,01,08,0.80
2015,09,13,01,09,2.60
2015,09,13,01,10,3.10
2015,09,13,01,11,2.20
2015,09,13,01,12,3.60
2015,09,13,01,13,3.70
2015,09,13,01,14,3.50
2015,09,13,01,15,4.70
2015,09,13,01,16,4.50
2015,09,13,01,17,3.80
2015,09,13,01,18,3.00
2015,09,13,01,19,0.60
2015,09,13,01,20,1.20
2015,09,13,01,21,0.10
2015,09,13,01,22,0.00
2015,09,13,01,23,0.00
2015,09,13,01,24,0.30
2015,09,13,01,25,1.10
2015,09,13,01,26,0.10
2015,09,13,01,27,1.00
2015,09,13,01,28,0.00
2015,09,13,01,29,1.20
2015,09,13,01,30,1.70
2015,09,13,01,31,0.90
2015,09,13,01,32,1.80
2015,09,13,01,33,3.30
2015,09,13,01,34,3.20
2015,09,13,01,35,2.20
2015,09,13,01,36,2.90
2015,09,13,01,37,1.10
2015,09,13,01,38,1.20
2015,09,13,01,39,2.90
2015,09,13,01,40,2.80
2015,09,13,01,41,1.80
2015,09,13,01,42,0.10
2015,09,13,01,43,0.00
2015,09,13,01,44,0.00
2015,09,13,01,45,0.10
2015,09,13,01,46,0.00
2015,09,13,01,47,0.00
2015,09,13,01,48,0.50
2015,09,13,01,49,2.90
2015,09,13,01,50,2.00
2015,09,13,01,51,3.30
2015,09,13,01,52,3.40
2015,09,13,01,53,1.40
2015,09,13,01,54,3.70
2015,09,13,01,55,0.80
2015,09,13,01,56,0.60
2015,09,13,01,57,0.40
2015,09,13,01,58,0.00
2015,09,13,01,59,0.00
2015,09,13,02,00,0.80
2015,09,13,02,01,0.10
2015,09,13,02,02,0.00
2015,09,13,02,03,0.00
2015,09,13,02,04,0.00
2015,09,13,02,05,0.00
2015,09,13,02,06,0.10
2015,09,13,02,07,0.60
2015,09,13,02,08,0.00
2015,09,13,02,09,0.00
2015,09,13,02,10,0.00
2015,09,13,02,11,0.00
2015,09,13,02,12,0.80
2015,09,13,02,13,3.00
2015,09,13,02,14,0.90
2015,09,13,02,15,0.00
2015,09,13,02,16,0.50
2015,09,13,02,17,2.10
2015,09,13,02,18,2.40
2015,09,13,02,19,2.50
2015,09,13,02,20,1.50
2015,09,13,02,21,1.30
2015,09,13,02,22,0.30
2015,09,13,02,23,0.00
2015,09,13,02,24,0.30
2015,09,13,02,25,0.90
2015,09,13,02,26,0.20
2015,09,13,02,27,0.60
2015,09,13,02,28,1.50
2015,09,13,02,29,4.20
2015,09,13,02,30,2.60
2015,09,13,02,31,0.30
2015,09,13,02,32,2.40
2015,09,13,02,33,2.60
2015,09,13,02,34,2.80
2015,09,13,02,35,2.80
2015,09,13,02,36,3.10
2015,09,13,02,37,4.50
2015,09,13,02,38,4.00
2015,09,13,02,39,3.00
2015,09,13,02,40,2.10
2015,09,13,02,41,0.60
2015,09,13,02,42,0.00
2015,09,13,02,43,0.00
2015,09,13,02,44,0.90
2015,09,13,02,45,2.30
2015,09,13,02,46,4.20
2015,09,13,02,47,4.40
2015,09,13,02,48,3.10
2015,09,13,02,49,1.20
2015,09,13,02,50,1.70
2015,09,13,02,51,1.40
2015,09,13,02,52,1.90
2015,09,13,02,53,0.80
2015,09,13,02,54,1.00
2015,09,13,02,55,1.50
2015,09,13,02,56,0.80
2015,09,13,02,57,0.20
2015,09,13,02,58,0.10
2015,09,13,02,59,0.00
2015,09,13,03,00,0.00
2015,09,13,03,01,0.00
2015,09,13,03,02,0.00
2015,09,13,03,03,1.60
2015,09,13,03,04,2.60
2015,09,13,03,05,2.10
2015,09,13,03,06,1.50
2015,09,13,03,07,0.40
2015,09,13,03,08,0.00
2015,09,13,03,09,0.40
2015,09,13,03,10,0.40
2015,09,13,03,11,0.00
2015,09,13,03,12,1.40
2015,09,13,03,13,1.80
2015,09,13,03,14,0.00
2015,09,13,03,15,0.00
2015,09,13,03,16,0.20
2015,09,13,03,17,3.50
2015,09,13,03,18,5.00
2015,09,13,03,19,1.70
2015,09,13,03,20,5.20
2015,09,13,03,21,1.70
2015,09,13,03,22,1.50
2015,09,13,03,23,2.30
2015,09,13,03,24,1.10
2015,09,13,03,25,1.60
2015,09,13,03,26,2.70
2015,09,13,03,27,2.90
2015,09,13,03,28,3.50
2015,09,13,03,29,1.90
2015,09,13,03,30,1.90
2015,09,13,03,31,0.70
2015,09,13,03,32,0.00
2015,09,13,03,33,1.50
2015,09,13,03,34,2.90
2015,09,13,03,35,4.00
2015,09,13,03,36,2.90
2015,09,13,03,37,2.30
2015,09,13,03,38,1.30
2015,09,13,03,39,2.30
2015,09,13,03,40,2.50
2015,09,13,03,41,3.00
2015,09,13,03,42,2.00
2015,09,13,03,43,1.10
2015,09,13,03,44,0.10
2015,09,13,03,45,0.90
2015,09,13,03,46,2.30
2015,09,13,03,47,3.50
2015,09,13,03,48,3.20
2015,09,13,03,49,2.60
2015,09,13,03,50,1.70
2015,09,13,03,51,1.50
2015,09,13,03,52,1.70
2015,09,13,03,53,1.20
2015,09,13,03,54,1.20
2015,09,13,03,55,1.10
2015,09,13,03,56,1.70
2015,09,13,03,57,1.80
2015,09,13,03,58,1.60
2015,09,13,03,59,1.20
2015,09,13,04,00,1.70
2015,09,13,04,01,1.70
2015,09,13,04,02,1.20
2015,09,13,04,03,0.60
2015,09,13,04,04,0.60
2015,09,13,04,05,1.70
2015,09,13,04,06,2.00
2015,09,13,04,07,1.80
2015,09,13,04,08,1.30
2015,09,13,04,09,0.20
2015,09,13,04,10,0.00
2015,09,13,04,11,1.10
2015,09,13,04,12,2.80
2015,09,13,04,13,1.80
2015,09,13,04,14,0.90
2015,09,13,04,15,0.30
2015,09,13,04,16,0.00
2015,09,13,04,17,0.00
2015,09,13,04,18,0.10
2015,09,13,04,19,1.60
2015,09,13,04,20,0.20
2015,09,13,04,21,0.10
2015,09,13,04,22,0.00
2015,09,13,04,23,0.00
2015,09,13,04,24,0.30
2015,09,13,04,25,1.30
2015,09,13,04,26,1.70
2015,09,13,04,27,1.60
2015,09,13,04,28,0.90
2015,09,13,04,29,1.00
2015,09,13,04,30,1.40
2015,09,13,04,31,2.40
2015,09,13,04,32,3.40
2015,09,13,04,33,2.50
2015,09,13,04,34,2.30
2015,09,13,04,35,3.30
2015,09,13,04,36,3.80
2015,09,13,04,37,3.10
2015,09,13,04,38,3.40
2015,09,13,04,39,2.50
2015,09,13,04,40,1.60
2015,09,13,04,41,0.30
2015,09,13,04,42,0.90
2015,09,13,04,43,0.70
2015,09,13,04,44,1.60
2015,09,13,04,45,2.40
2015,09,13,04,46,3.40
2015,09,13,04,47,1.10
2015,09,13,04,48,0.40
2015,09,13,04,49,1.60
2015,09,13,04,50,2.30
2015,09,13,04,51,3.00
2015,09,13,04,52,2.90
2015,09,13,04,53,1.60
2015,09,13,04,54,1.10
2015,09,13,04,55,0.20
2015,09,13,04,56,0.60
2015,09,13,04,57,1.20
2015,09,13,04,58,2.20
2015,09,13,04,59,2.00
2015,09,13,05,00,1.50
2015,09,13,05,01,2.00
2015,09,13,05,02,0.70
2015,09,13,05,03,0.40
2015,09,13,05,04,2.00
2015,09,13,05,05,2.20
2015,09,13,05,06,1.40
2015,09,13,05,07,0.70
2015,09,13,05,08,0.40
2015,09,13,05,09,1.90
2015,09,13,05,10,2.40
2015,09,13,05,11,2.20
2015,09,13,05,12,1.90
2015,09,13,05,13,1.60
2015,09,13,05,14,1.80
2015,09,13,05,15,2.10
2015,09,13,05,16,1.10
2015,09,13,05,17,1.90
2015,09,13,05,18,1.20
2015,09,13,05,19,1.00
2015,09,13,05,20,2.80
2015,09,13,05,21,1.80
2015,09,13,05,22,3.00
2015,09,13,05,23,2.90
2015,09,13,05,24,2.40
2015,09,13,05,25,3.70
2015,09,13,05,26,2.30
2015,09,13,05,27,2.40
2015,09,13,05,28,2.10
2015,09,13,05,29,2.70
2015,09,13,05,30,2.10
2015,09,13,05,31,2.10
2015,09,13,05,32,1.70
2015,09,13,05,33,2.80
2015,09,13,05,34,3.40
2015,09,13,05,35,3.30
2015,09,13,05,36,1.60
2015,09,13,05,37,0.80
2015,09,13,05,38,1.40
2015,09,13,05,39,2.10
2015,09,13,05,40,3.00
2015,09,13,05,41,2.00
2015,09,13,05,42,0.90
2015,09,13,05,43,0.10
2015,09,13,05,44,0.00
2015,09,13,05,45,0.50
2015,09,13,05,46,1.60
2015,09,13,05,47,1.60
2015,09,13,05,48,1.70
2015,09,13,05,49,1.10
2015,09,13,05,50,1.20
2015,09,13,05,51,1.20
2015,09,13,05,52,1.20
2015,09,13,05,53,0.90
2015,09,13,05,54,0.40
2015,09,13,05,55,0.00
2015,09,13,05,56,0.70
2015,09,13,05,57,1.20
2015,09,13,05,58,0.20
2015,09,13,05,59,0.50
2015,09,13,06,00,0.10
2015,09,13,06,01,2.10
2015,09,13,06,02,0.70
2015,09,13,06,03,0.60
2015,09,13,06,04,2.10
2015,09,13,06,05,3.00
2015,09,13,06,06,2.80
2015,09,13,06,07,1.30
2015,09,13,06,08,1.70
2015,09,13,06,09,2.60
2015,09,13,06,10,2.10
2015,09,13,06,11,2.40
2015,09,13,06,12,1.80
2015,09,13,06,13,1.80
2015,09,13,06,14,1.50
2015,09,13,06,15,1.30
2015,09,13,06,16,0.70
2015,09,13,06,17,1.00
2015,09,13,06,18,1.40
2015,09,13,06,19,1.60
2015,09,13,06,20,1.70
2015,09,13,06,21,2.00
2015,09,13,06,22,1.90
2015,09,13,06,23,2.50
2015,09,13,06,24,2.30
2015,09,13,06,25,1.70
2015,09,13,06,26,1.40
2015,09,13,06,27,1.10
2015,09,13,06,28,1.20
2015,09,13,06,29,1.20
2015,09,13,06,30,0.50
2015,09,13,06,31,1.60
2015,09,13,06,32,1.30
2015,09,13,06,33,1.60
2015,09,13,06,34,2.10
2015,09,13,06,35,1.50
2015,09,13,06,36,1.70
2015,09,13,06,37,2.40
2015,09,13,06,38,1.50
2015,09,13,06,39,1.70
2015,09,13,06,40,2.50
2015,09,13,06,41,1.80
2015,09,13,06,42,1.90
2015,09,13,06,43,1.00
2015,09,13,06,44,0.20
2015,09,13,06,45,0.90
2015,09,13,06,46,1.30
2015,09,13,06,47,0.70
2015,09,13,06,48,0.00
2015,09,13,06,49,0.00
2015,09,13,06,50,0.00
2015,09,13,06,51,0.00
2015,09,13,06,52,0.80
2015,09,13,06,53,3.20
2015,09,13,06,54,1.80
2015,09,13,06,55,0.90
2015,09,13,06,56,1.50
2015,09,13,06,57,1.30
2015,09,13,06,58,1.00
2015,09,13,06,59,0.60
2015,09,13,07,00,0.90
2015,09,13,07,01,0.30
2015,09,13,07,02,0.90
2015,09,13,07,03,1.60
2015,09,13,07,04,1.50
2015,09,13,07,05,1.20
2015,09,13,07,06,1.30
2015,09,13,07,07,1.40
2015,09,13,07,08,0.10
2015,09,13,07,09,0.00
2015,09,13,07,10,0.00
2015,09,13,07,11,0.00
2015,09,13,07,12,0.80
2015,09,13,07,13,0.30
2015,09,13,07,14,0.00
2015,09,13,07,15,0.10
2015,09,13,07,16,0.90
2015,09,13,07,17,1.40
2015,09,13,07,18,0.50
2015,09,13,07,19,0.00
2015,09,13,07,20,0.00
2015,09,13,07,21,0.10
2015,09,13,07,22,0.00
2015,09,13,07,23,0.00
2015,09,13,07,24,0.00
2015,09,13,07,25,0.20
2015,09,13,07,26,1.00
2015,09,13,07,27,1.40
2015,09,13,07,28,1.80
2015,09,13,07,29,2.40
2015,09,13,07,30,2.50
2015,09,13,07,31,2.80
2015,09,13,07,32,1.90
2015,09,13,07,33,0.40
2015,09,13,07,34,0.80
2015,09,13,07,35,1.00
2015,09,13,07,36,2.40
2015,09,13,07,37,1.70
2015,09,13,07,38,0.30
2015,09,13,07,39,0.60
2015,09,13,07,40,0.10
2015,09,13,07,41,0.00
2015,09,13,07,42,0.00
2015,09,13,07,43,0.00
2015,09,13,07,44,0.00
2015,09,13,07,45,0.80
2015,09,13,07,46,3.30
2015,09,13,07,47,2.40
2015,09,13,07,48,2.20
2015,09,13,07,49,2.10
2015,09,13,07,50,2.30
2015,09,13,07,51,2.30
2015,09,13,07,52,1.70
2015,09,13,07,53,2.40
2015,09,13,07,54,1.90
2015,09,13,07,55,1.80
2015,09,13,07,56,0.00
2015,09,13,07,57,1.80
2015,09,13,07,58,3.30
2015,09,13,07,59,2.60
2015,09,13,08,00,1.40
2015,09,13,08,01,0.50
2015,09,13,08,02,1.80
2015,09,13,08,03,1.60
2015,09,13,08,04,1.70
2015,09,13,08,05,0.80
2015,09,13,08,06,0.00
2015,09,13,08,07,0.60
2015,09,13,08,08,1.10
2015,09,13,08,09,2.00
2015,09,13,08,10,1.50
2015,09,13,08,11,0.70
2015,09,13,08,12,1.50
2015,09,13,08,13,1.70
2015,09,13,08,14,2.80
2015,09,13,08,15,1.90
2015,09,13,08,16,0.50
2015,09,13,08,17,2.80
2015,09,13,08,18,2.80
2015,09,13,08,19,2.70
2015,09,13,08,20,2.70
2015,09,13,08,21,2.00
2015,09,13,08,22,2.20
2015,09,13,08,23,0.80
2015,09,13,08,24,1.20
2015,09,13,08,25,1.70
2015,09,13,08,26,2.50
2015,09,13,08,27,1.80
2015,09,13,08,28,1.60
2015,09,13,08,29,2.10
2015,09,13,08,30,2.50
2015,09,13,08,31,2.80
2015,09,13,08,32,1.30
2015,09,13,08,33,0.80
2015,09,13,08,34,1.40
2015,09,13,08,35,0.80
2015,09,13,08,36,1.70
2015,09,13,08,37,1.00
2015,09,13,08,38,1.30
2015,09,13,08,39,1.70
2015,09,13,08,40,2.90
2015,09,13,08,41,1.70
2015,09,13,08,42,0.80
2015,09,13,08,43,0.00
2015,09,13,08,44,0.50
2015,09,13,08,45,0.90
2015,09,13,08,46,0.40
2015,09,13,08,47,2.60
2015,09,13,08,48,2.40
2015,09,13,08,49,4.50
2015,09,13,08,50,5.40
2015,09,13,08,51,5.40
2015,09,13,08,52,3.20
2015,09,13,08,53,3.90
2015,09,13,08,54,3.20
2015,09,13,08,55,2.20
2015,09,13,08,56,1.80
2015,09,13,08,57,2.00
2015,09,13,08,58,1.80
2015,09,13,08,59,1.90
2015,09,13,09,00,1.70
2015,09,13,09,01,1.40
2015,09,13,09,02,0.40
2015,09,13,09,03,0.30
2015,09,13,09,04,0.00
2015,09,13,09,05,0.10
2015,09,13,09,06,0.40
2015,09,13,09,07,1.70
2015,09,13,09,08,2.40
2015,09,13,09,09,3.60
2015,09,13,09,10,2.30
2015,09,13,09,11,1.60
2015,09,13,09,12,0.60
2015,09,13,09,13,2.70
2015,09,13,09,14,3.60
2015,09,13,09,15,5.00
2015,09,13,09,16,3.60
2015,09,13,09,17,0.90
2015,09,13,09,18,1.10
2015,09,13,09,19,2.40
2015,09,13,09,20,1.10
2015,09,13,09,21,1.30
2015,09,13,09,22,1.90
2015,09,13,09,23,1.40
2015,09,13,09,24,1.30
2015,09,13,09,25,0.40
2015,09,13,09,26,1.60
2015,09,13,09,27,1.20
2015,09,13,09,28,1.00
2015,09,13,09,29,1.90
2015,09,13,09,30,1.70
2015,09,13,09,31,1.90
2015,09,13,09,32,1.50
2015,09,13,09,33,0.30
2015,09,13,09,34,1.90
2015,09,13,09,35,1.50
2015,09,13,09,36,1.60
2015,09,13,09,37,1.80
2015,09,13,09,38,1.60
2015,09,13,09,39,0.20
2015,09,13,09,40,1.30
2015,09,13,09,41,2.80
2015,09,13,09,42,2.70
2015,09,13,09,43,4.00
2015,09,13,09,44,3.60
2015,09,13,09,45,0.70
2015,09,13,09,46,2.20
2015,09,13,09,47,7.80
2015,09,13,09,48,3.40
2015,09,13,09,49,4.20
2015,09,13,09,50,3.60
2015,09,13,09,51,0.90
2015,09,13,09,52,2.20
2015,09,13,09,53,2.10
2015,09,13,09,54,3.50
2015,09,13,09,55,5.80
2015,09,13,09,56,4.50
2015,09,13,09,57,2.70
2015,09,13,09,58,2.70
2015,09,13,09,59,1.90
2015,09,13,10,00,3.00
2015,09,13,10,01,2.40
2015,09,13,10,02,5.00
2015,09,13,10,03,5.40
2015,09,13,10,04,8.00
2015,09,13,10,05,6.80
2015,09,13,10,06,4.40
2015,09,13,10,07,5.00
2015,09,13,10,08,4.10
2015,09,13,10,09,4.50
2015,09,13,10,10,4.30
2015,09,13,10,11,4.70
2015,09,13,10,12,4.30
2015,09,13,10,13,3.90
2015,09,13,10,14,6.30
2015,09,13,10,15,4.60
2015,09,13,10,16,4.10
2015,09,13,10,17,4.80
2015,09,13,10,18,3.00
2015,09,13,10,19,3.90
2015,09,13,10,20,4.50
2015,09,13,10,21,4.20
2015,09,13,10,22,3.70
2015,09,13,10,23,1.80
2015,09,13,10,24,3.50
2015,09,13,10,25,3.60
2015,09,13,10,26,2.80
2015,09,13,10,27,3.80
2015,09,13,10,28,2.30
2015,09,13,10,29,4.00
2015,09,13,10,30,5.40
2015,09,13,10,31,4.50
2015,09,13,10,32,3.90
2015,09,13,10,33,5.30
2015,09,13,10,34,3.70
2015,09,13,10,35,4.70
2015,09,13,10,36,6.20
2015,09,13,10,37,6.20
2015,09,13,10,38,4.60
2015,09,13,10,39,4.80
2015,09,13,10,40,4.30
2015,09,13,10,41,0.80
2015,09,13,10,42,3.90
2015,09,13,10,43,4.10
2015,09,13,10,44,5.00
2015,09,13,10,45,3.80
2015,09,13,10,46,3.30
2015,09,13,10,47,4.70
2015,09,13,10,48,5.10
2015,09,13,10,49,4.90
2015,09,13,10,50,6.90
2015,09,13,10,51,5.20
2015,09,13,10,52,3.80
2015,09,13,10,53,6.80
2015,09,13,10,54,4.40
2015,09,13,10,55,7.80
2015,09,13,10,56,4.20
2015,09,13,10,57,3.30
2015,09,13,10,58,5.20
2015,09,13,10,59,2.90
2015,09,13,11,00,3.50
2015,09,13,11,01,5.90
2015,09,13,11,02,2.20
2015,09,13,11,03,3.50
2015,09,13,11,04,3.60
2015,09,13,11,05,1.90
2015,09,13,11,06,1.50
2015,09,13,11,07,5.00
2015,09,13,11,08,3.40
2015,09,13,11,09,4.00
2015,09,13,11,10,6.40
2015,09,13,11,11,5.60
2015,09,13,11,12,3.40
2015,09,13,11,13,3.60
2015,09,13,11,14,2.00
2015,09,13,11,15,6.10
2015,09,13,11,16,4.90
2015,09,13,11,17,6.90
2015,09,13,11,18,7.50
2015,09,13,11,19,6.00
2015,09,13,11,20,5.80
2015,09,13,11,21,6.40
2015,09,13,11,22,7.50
2015,09,13,11,23,8.60
2015,09,13,11,24,7.70
2015,09,13,11,25,6.90
2015,09,13,11,26,6.60
2015,09,13,11,27,6.50
2015,09,13,11,28,7.40
2015,09,13,11,29,8.90
2015,09,13,11,30,6.60
2015,09,13,11,31,4.80
2015,09,13,11,32,4.80
2015,09,13,11,33,5.90
2015,09,13,11,34,6.70
2015,09,13,11,35,6.90
2015,09,13,11,36,6.10
2015,09,13,11,37,3.00
2015,09,13,11,38,5.40
2015,09,13,11,39,3.80
2015,09,13,11,40,3.90
2015,09,13,11,41,3.70
2015,09,13,11,42,3.60
2015,09,13,11,43,4.70
2015,09,13,11,44,5.40
2015,09,13,11,45,4.00
2015,09,13,11,46,2.30
2015,09,13,11,47,4.70
2015,09,13,11,48,6.50
2015,09,13,11,49,3.40
2015,09,13,11,50,4.10
2015,09,13,11,51,7.20
2015,09,13,11,52,7.90
2015,09,13,11,53,4.60
2015,09,13,11,54,7.50
2015,09,13,11,55,4.30
2015,09,13,11,56,2.20
2015,09,13,11,57,2.40
2015,09,13,11,58,6.90
2015,09,13,11,59,5.50
2015,09,13,12,00,8.90
2015,09,13,12,01,10.20
2015,09,13,12,02,7.20
2015,09,13,12,03,7.80
2015,09,13,12,04,6.80
2015,09,13,12,05,8.30
2015,09,13,12,06,5.50
2015,09,13,12,07,5.30
2015,09,13,12,08,6.60
2015,09,13,12,09,7.10
2015,09,13,12,10,2.80
2015,09,13,12,11,1.80
2015,09,13,12,12,4.40
2015,09,13,12,13,3.00
2015,09,13,12,14,4.30
2015,09,13,12,15,2.90
2015,09,13,12,16,13.50
2015,09,13,12,17,8.80
2015,09,13,12,18,7.80
2015,09,13,12,19,9.40
2015,09,13,12,20,15.40
2015,09,13,12,21,13.10
2015,09,13,12,22,5.60
2015,09,13,12,23,4.20
2015,09,13,12,24,3.10
2015,09,13,12,25,6.80
2015,09,13,12,26,4.40
2015,09,13,12,27,3.60
2015,09,13,12,28,7.60
2015,09,13,12,29,7.10
2015,09,13,12,30,8.00
2015,09,13,12,31,4.50
2015,09,13,12,32,5.10
2015,09,13,12,33,9.10
2015,09,13,12,34,9.40
2015,09,13,12,35,13.00
2015,09,13,12,36,13.20
2015,09,13,12,37,15.60
2015,09,13,12,38,19.30
2015,09,13,12,39,15.90
2015,09,13,12,40,13.00
2015,09,13,12,41,12.90
2015,09,13,12,42,12.60
2015,09,13,12,43,11.30
2015,09,13,12,44,8.70
2015,09,13,12,45,18.80
2015,09,13,12,46,16.60
2015,09,13,12,47,15.50
2015,09,13,12,48,12.70
2015,09,13,12,49,14.00
2015,09,13,12,50,16.60
2015,09,13,12,51,23.70
2015,09,13,12,52,23.30
2015,09,13,12,53,26.40
2015,09,13,12,54,20.90
2015,09,13,12,55,20.20
2015,09,13,12,56,21.20
2015,09,13,12,57,22.30
2015,09,13,12,58,24.30
2015,09,13,12,59,18.90
2015,09,13,13,00,20.70
2015,09,13,13,01,22.30
2015,09,13,13,02,20.20
2015,09,13,13,03,29.20
2015,09,13,13,04,29.10
2015,09,13,13,05,22.80
2015,09,13,13,06,26.60
2015,09,13,13,07,26.10
2015,09,13,13,08,21.60
2015,09,13,13,09,22.70
2015,09,13,13,10,23.30
2015,09,13,13,11,25.60
2015,09,13,13,12,20.10
2015,09,13,13,13,21.50
2015,09,13,13,14,23.70
2015,09,13,13,15,22.80
2015,09,13,13,16,15.80
2015,09,13,13,17,19.00
2015,09,13,13,18,27.20
2015,09,13,13,19,27.60
2015,09,13,13,20,23.40
2015,09,13,13,21,17.80
2015,09,13,13,22,19.10
2015,09,13,13,23,17.60
2015,09,13,13,24,20.00
2015,09,13,13,25,16.10
2015,09,13,13,26,23.10
2015,09,13,13,27,24.40
2015,09,13,13,28,15.90
2015,09,13,13,29,14.60
2015,09,13,13,30,26.80
2015,09,13,13,31,25.20
2015,09,13,13,32,22.10
2015,09,13,13,33,25.90
2015,09,13,13,34,18.00
2015,09,13,13,35,22.30
2015,09,13,13,36,21.80
2015,09,13,13,37,15.90
2015,09,13,13,38,17.30
2015,09,13,13,39,13.00
2015,09,13,13,40,19.40
2015,09,13,13,41,11.40
2015,09,13,13,42,19.90
2015,09,13,13,43,18.10
2015,09,13,13,44,13.60
2015,09,13,13,45,20.40
2015,09,13,13,46,20.60
2015,09,13,13,47,13.50
2015,09,13,13,48,14.40
2015,09,13,13,49,23.20
2015,09,13,13,50,20.70
2015,09,13,13,51,18.10
2015,09,13,13,52,13.20
2015,09,13,13,53,19.40
2015,09,13,13,54,19.00
2015,09,13,13,55,18.40
2015,09,13,13,56,16.00
2015,09,13,13,57,13.60
2015,09,13,13,58,15.50
2015,09,13,13,59,11.50
2015,09,13,14,00,10.10
2015,09,13,14,01,11.70
2015,09,13,14,02,10.30
2015,09,13,14,03,14.50
2015,09,13,14,04,16.00
2015,09,13,14,05,16.30
2015,09,13,14,06,15.30
2015,09,13,14,07,15.60
2015,09,13,14,08,11.00
2015,09,13,14,09,15.10
2015,09,13,14,10,14.10
2015,09,13,14,11,19.00
2015,09,13,14,12,13.80
2015,09,13,14,13,13.70
2015,09,13,14,14,14.00
2015,09,13,14,15,17.90
2015,09,13,14,16,18.50
2015,09,13,14,17,14.00
2015,09,13,14,18,13.90
2015,09,13,14,19,15.20
2015,09,13,14,20,15.70
2015,09,13,14,21,18.30
2015,09,13,14,22,16.40
2015,09,13,14,23,16.50
2015,09,13,14,24,11.50
2015,09,13,14,25,12.20
2015,09,13,14,26,8.30
2015,09,13,14,27,9.30
2015,09,13,14,28,19.70
2015,09,13,14,29,22.80
2015,09,13,14,30,19.30
2015,09,13,14,31,19.90
2015,09,13,14,32,22.70
2015,09,13,14,33,8.80
2015,09,13,14,34,11.00
2015,09,13,14,35,8.90
2015,09,13,14,36,11.70
2015,09,13,14,37,16.50
2015,09,13,14,38,13.70
2015,09,13,14,39,25.80
2015,09,13,14,40,20.60
2015,09,13,14,41,18.80
2015,09,13,14,42,27.80
2015,09,13,14,43,25.60
2015,09,13,14,44,21.70
2015,09,13,14,45,23.60
2015,09,13,14,46,18.70
2015,09,13,14,47,20.30
2015,09,13,14,48,21.50
2015,09,13,14,49,19.30
2015,09,13,14,50,21.30
2015,09,13,14,51,18.10
2015,09,13,14,52,21.50
2015,09,13,14,53,24.60
2015,09,13,14,54,19.70
2015,09,13,14,55,11.40
2015,09,13,14,56,22.00
2015,09,13,14,57,21.20
2015,09,13,14,58,17.80
2015,09,13,14,59,21.20
2015,09,13,15,00,15.10
2015,09,13,15,01,12.60
2015,09,13,15,02,14.90
2015,09,13,15,03,10.30
2015,09,13,15,04,10.70
2015,09,13,15,05,9.90
2015,09,13,15,06,15.80
2015,09,13,15,07,11.90
2015,09,13,15,08,11.90
2015,09,13,15,09,13.70
2015,09,13,15,10,11.00
2015,09,13,15,11,10.60
2015,09,13,15,12,13.80
2015,09,13,15,13,15.70
2015,09,13,15,14,8.00
2015,09,13,15,15,9.70
2015,09,13,15,16,17.40
2015,09,13,15,17,22.60
2015,09,13,15,18,13.50
2015,09,13,15,19,11.70
2015,09,13,15,20,14.00
2015,09,13,15,21,16.20
2015,09,13,15,22,20.80
2015,09,13,15,23,12.50
2015,09,13,15,24,18.90
2015,09,13,15,25,17.80
2015,09,13,15,26,13.80
2015,09,13,15,27,8.60
2015,09,13,15,28,13.10
2015,09,13,15,29,12.20
2015,09,13,15,30,12.60
2015,09,13,15,31,6.60
2015,09,13,15,32,13.30
2015,09,13,15,33,11.50
2015,09,13,15,34,15.80
2015,09,13,15,35,12.10
2015,09,13,15,36,12.70
2015,09,13,15,37,13.40
2015,09,13,15,38,14.80
2015,09,13,15,39,13.10
2015,09,13,15,40,8.40
2015,09,13,15,41,10.90
2015,09,13,15,42,4.40
2015,09,13,15,43,9.40
2015,09,13,15,44,9.90
2015,09,13,15,45,14.50
2015,09,13,15,46,15.50
2015,09,13,15,47,10.40
2015,09,13,15,48,7.70
2015,09,13,15,49,5.60
2015,09,13,15,50,10.50
2015,09,13,15,51,5.80
2015,09,13,15,52,9.90
2015,09,13,15,53,9.10
2015,09,13,15,54,8.50
2015,09,13,15,55,11.00
2015,09,13,15,56,6.30
2015,09,13,15,57,10.70
2015,09,13,15,58,9.00
2015,09,13,15,59,14.80
2015,09,13,16,00,15.10
2015,09,13,16,01,4.70
2015,09,13,16,02,15.30
2015,09,13,16,03,10.80
2015,09,13,16,04,9.10
2015,09,13,16,05,15.30
2015,09,13,16,06,13.90
2015,09,13,16,07,6.00
2015,09,13,16,08,14.50
2015,09,13,16,09,13.50
2015,09,13,16,10,8.40
2015,09,13,16,11,11.80
2015,09,13,16,12,8.70
2015,09,13,16,13,4.90
2015,09,13,16,14,7.90
2015,09,13,16,15,9.60
2015,09,13,16,16,10.00
2015,09,13,16,17,9.00
2015,09,13,16,18,4.90
2015,09,13,16,19,5.30
2015,09,13,16,20,10.10
2015,09,13,16,21,10.50
2015,09,13,16,22,13.90
2015,09,13,16,23,9.20
2015,09,13,16,24,8.30
2015,09,13,16,25,13.00
2015,09,13,16,26,12.80
2015,09,13,16,27,15.40
2015,09,13,16,28,21.70
2015,09,13,16,29,16.10
2015,09,13,16,30,17.80
2015,09,13,16,31,12.90
2015,09,13,16,32,10.90
2015,09,13,16,33,8.40
2015,09,13,16,34,15.70
2015,09,13,16,35,17.70
2015,09,13,16,36,17.20
2015,09,13,16,37,17.60
2015,09,13,16,38,8.70
2015,09,13,16,39,7.10
2015,09,13,16,40,15.50
2015,09,13,16,41,11.90
2015,09,13,16,42,13.20
2015,09,13,16,43,11.30
2015,09,13,16,44,14.70
2015,09,13,16,45,16.20
2015,09,13,16,46,13.70
2015,09,13,16,47,12.60
2015,09,13,16,48,10.90
2015,09,13,16,49,13.20
2015,09,13,16,50,11.50
2015,09,13,16,51,8.70
2015,09,13,16,52,10.10
2015,09,13,16,53,15.90
2015,09,13,16,54,8.40
2015,09,13,16,55,12.00
2015,09,13,16,56,18.70
2015,09,13,16,57,14.00
2015,09,13,16,58,8.90
2015,09,13,16,59,11.40
2015,09,13,17,00,12.00
2015,09,13,17,01,12.80
2015,09,13,17,02,10.00
2015,09,13,17,03,11.90
2015,09,13,17,04,13.40
2015,09,13,17,05,10.90
2015,09,13,17,06,11.20
2015,09,13,17,07,12.30
2015,09,13,17,08,11.80
2015,09,13,17,09,9.30
2015,09,13,17,10,6.60
2015,09,13,17,11,9.30
2015,09,13,17,12,11.50
2015,09,13,17,13,8.10
2015,09,13,17,14,5.40
2015,09,13,17,15,7.70
2015,09,13,17,16,6.40
2015,09,13,17,17,5.60
2015,09,13,17,18,5.30
2015,09,13,17,19,5.60
2015,09,13,17,20,4.50
2015,09,13,17,21,4.30
2015,09,13,17,22,9.10
2015,09,13,17,23,8.40
2015,09,13,17,24,3.40
2015,09,13,17,25,3.20
2015,09,13,17,26,1.60
2015,09,13,17,27,6.70
2015,09,13,17,28,4.30
2015,09,13,17,29,9.50
2015,09,13,17,30,3.20
2015,09,13,17,31,3.20
2015,09,13,17,32,11.40
2015,09,13,17,33,4.80
2015,09,13,17,34,6.20
2015,09,13,17,35,10.50
2015,09,13,17,36,9.90
2015,09,13,17,37,4.20
2015,09,13,17,38,3.90
2015,09,13,17,39,6.60
2015,09,13,17,40,8.90
2015,09,13,17,41,8.40
2015,09,13,17,42,9.20
2015,09,13,17,43,6.30
2015,09,13,17,44,7.90
2015,09,13,17,45,5.70
2015,09,13,17,46,8.90
2015,09,13,17,47,12.30
2015,09,13,17,48,12.30
2015,09,13,17,49,9.90
2015,09,13,17,50,13.60
2015,09,13,17,51,12.90
2015,09,13,17,52,9.60
2015,09,13,17,53,8.40
2015,09,13,17,54,17.10
2015,09,13,17,55,12.30